{"data":{"norad_id":63680,"intl_designator":"2025-085S","name":"STARLINK-33887","alt_names":[],"object_type":"PAYLOAD","status":"ACTIVE","operator":null,"country":"US","launch_date":"2025-04-28","launch_site_code":"AFETR","launch_vehicle":null,"mission":null,"orbit_class":"UNKNOWN","rcs_meters":null,"size_class":null,"mass_kg":null,"dimensions":null,"purposes":["comms"],"wikipedia_slug":null,"has_3d_model":false,"image_url":null,"decayed_at":null,"tle_current":{"epoch":"2026-05-25T04:22:23.624832Z","epoch_age_seconds":59609,"freshness":"FRESH","line1":"1 63680U 25085S   26145.18221788  .00020066  00000+0  73656-3 0  9991","line2":"2 63680  43.0008 318.4777 0001784 273.1262  86.9385 15.27586726 60633","mean_motion":15.27586726,"eccentricity":0.0001784,"inclination_deg":43.0008,"raan_deg":318.4777,"arg_perigee_deg":273.1262,"mean_anomaly_deg":86.9385,"bstar":0.00073656,"rev_number":6063,"period_min":94.266333654957,"perigee_km":481.80492404332,"apogee_km":484.25298805644,"semimajor_km":6861.1659560499,"source":"CELESTRAK","updated_at":"2026-05-25T13:38:20.094012Z"}}}